Flag for U.S.A. Weather past 2 weeks in Tallahassee, Florida, U.S.A.

Now
94 °F

Scattered clouds.


Feels Like: 99 °F
Forecast: 71 / 90 °F
Wind: 6 mph from Northeast

Location: Tallahassee Regional Airport

Current Time: Jul 7, 2015 at 4:37:29 PM

Latest Report: Jul 7, 2015 at 3:53 PM


Visibility: 10 mi

Pressure: 30.11 "Hg

Humidity: 44%

Dew point: 69 °F

Location of TallahasseeLocation

Historic Weather in Tallahassee — Graph

°F

Tallahassee temperature yesterday

Maximum temperature yesterday: 89 °F (at 6:53 PM)
Minimum temperature yesterday: 69 °F (at 4:53 AM)
Average temperature yesterday: 80 °F

Past Weeks' High & Low Weather Summary

 TemperatureHumidityPressure
High96 °F (Jul 3, 4:53 PM)100% (Jul 2, 3:53 PM)30.25 "Hg (Jul 2, 3:53 PM)
Low69 °F (Jul 1, 1:53 AM)41% (Jul 3, 4:53 PM)29.92 "Hg (Jun 28, 4:53 AM)
Average80 °F79%30.07 "Hg
* Reported Jun 22 2:53 PM — Jul 7 2:53 PM, Tallahassee, Weather by CustomWeather, © 2015

Note: Actual official high and low records may vary slightly from our data, if they occured in-between our weather recording intervals... More about our weather records

Advertising

Tallahassee weather history for previous 24 hours

 ConditionsComfort  
Time TempWeatherWind HumidityBarometerVisibility
2:53 PM
Tue, Jul 7
94 °FScattered clouds.6 mph46%30.12 "Hg10 mi
1:53 PM92 °FScattered clouds.6 mph49%30.14 "Hg10 mi
12:53 PM92 °FScattered clouds.6 mph51%30.16 "Hg10 mi
11:53 AM89 °FBroken clouds.6 mph57%30.17 "Hg10 mi
10:53 AM87 °FPartly sunny.5 mph61%30.17 "Hg10 mi
9:53 AM84 °FPartly sunny.6 mph70%30.18 "Hg10 mi
8:53 AM81 °FPartly sunny.3 mph77%30.17 "Hg10 mi
7:53 AM76 °FPartly sunny.No wind88%30.16 "Hg10 mi
6:53 AM72 °FPassing clouds.No wind93%30.14 "Hg10 mi
5:53 AM74 °FPassing clouds.No wind91%30.13 "Hg10 mi
4:53 AM75 °FClear.No wind88%30.12 "Hg10 mi
3:53 AM74 °FClear.No wind91%30.11 "Hg10 mi
2:53 AM75 °FClear.No wind90%30.10 "Hg10 mi
1:53 AM75 °FClear.No wind94%30.11 "Hg10 mi
12:53 AM77 °FClear.No wind88%30.11 "Hg10 mi
11:53 PM
Mon, Jul 6
78 °FClear.No wind87%30.11 "Hg10 mi
10:53 PM79 °FPassing clouds.No wind84%30.11 "Hg10 mi
9:53 PM81 °FPassing clouds.No wind79%30.10 "Hg10 mi
8:53 PM83 °FScattered clouds.No wind77%30.09 "Hg10 mi
7:53 PM86 °FScattered clouds.5 mph65%30.10 "Hg10 mi
6:53 PM89 °FScattered clouds.10 mph57%30.09 "Hg10 mi
5:53 PM88 °FBroken clouds.6 mph59%30.11 "Hg10 mi
4:53 PM84 °FLight rain. Partly sunny.6 mph70%30.12 "Hg10 mi
Weather by CustomWeather, © 2015

See weather overviewHow to use our weather pages